Regional Weather Roundup
Issued by NWS

Home | Current Version | Previous Version | Graphics & Text | Print | Product List | Glossary On
Versions: 1 2 3 4 5 6 7 8 9 10 11 12 13 14 15 16 17 18 19 20 21 22 23 24 25 26 27 28 29 30 31 32 33 34 35 36 37 38 39 40 41 42 43 44 45 46 47 48 49 50
000
ASUS45 KBOI 020710
RWRID

IDAHO REGIONAL WEATHER ROUNDUP
NATIONAL WEATHER SERVICE BOISE ID
100 AM MDT WED SEP 02 2015

NOTE: "FAIR" INDICATES FEW OR NO CLOUDS BELOW 12000 FEET
WITH NO SIGNIFICANT WEATHER AND/OR OBSTRUCTIONS TO VISIBILITY

IDZ012-014-020800-
SOUTHWEST IDAHO


CITY           SKY/WX    TMP DP  RH WIND       PRES   REMARKS
BOISE          PTCLDY    72  37  28 SE6       29.75R
CALDWELL       PTCLDY    61  43  51 SE3       29.73F
MOUNTAIN HOME  CLEAR     62  38  41 S6        29.76R
$$

IDZ016-017-020800-
SOUTHCENTRAL IDAHO


CITY           SKY/WX    TMP DP  RH WIND       PRES   REMARKS
BURLEY         CLEAR     55  47  74 CALM      29.84S
JEROME         CLEAR     62  40  44 SE8       29.85R
TWIN FALLS     CLEAR     71  31  22 S13       29.85S
$$

IDZ019>023-020800-
SOUTHEAST IDAHO


CITY           SKY/WX    TMP DP  RH WIND       PRES   REMARKS
IDAHO FALLS    CLEAR     58  42  55 CALM      29.90F
POCATELLO      CLEAR     62  40  44 MISG      29.87R
REXBURG        PTCLDY    60  38  43 VRB3      29.92S
$$

IDZ006-010-011-018-031-032-020800-
CENTRAL IDAHO MOUNTAINS


CITY           SKY/WX    TMP DP  RH WIND       PRES   REMARKS
MCCALL         MOCLDY    53  39  59 CALM      29.86F
HAILEY         CLEAR     55  34  44 NW10      29.96S
STANLEY          N/A     49  27  42 S5        30.00F
SALMON         CLEAR     55  34  44 CALM      29.80S
CHALLIS        CLEAR     59  29  31 CALM      29.88F
$$

IDZ002-004-006-007-026-020800-
NORTHERN IDAHO


CITY           SKY/WX    TMP DP  RH WIND       PRES   REMARKS
LEWISTON       CLOUDY    67  37  33 S6        29.73S
LOWELL           N/A     57  53  86 CALM      29.76S
COEUR D`ALENE  CLOUDY    63  45  51 S5        29.74S
MULLAN PASS    CLOUDY    52  29  41 SW6       29.89F
$$



USA.gov is the U.S. government's official web portal to all federal, state and local government web resources and services.